User: anonymous   Login
Location: Caltech
(34.1382°N, 118.1253°W)
Time: 05:05:35
(UTC-07:00)
Language:

Cosmos 1125 Rocket - Orbit

View from above orbital plane
View from above orbital plane
View from above satellite
View from above satellite

Ground track
Ground track

The orbit data is extracted from the following two-line orbital elements,

1 11511U 79078B   16119.09936260  .00000049  00000-0  25393-4 0  9992
2 11511  74.0380 358.1956 0015906 340.1763  19.8770 14.36707955919003
Epoch (UTC): 28 April 2016 02:23:04
Eccentricity: 0.0015906
inclination: 74.0380°
perigee height: 758 km
apogee height: 781 km
right ascension of ascending node: 358.1956°
argument of perigee: 340.1763°
revolutions per day: 14.36707955
mean anomaly at epoch: 19.8770°
orbit number at epoch: 91900

The dashed part of the orbit path shows where the satellite is in the earth's shadow,  

DLR